This is the latest recevied weather packets stored in our database for station/object SP4MAZ-13. If no packets are shown the sender has not sent any weather packets the latest 10 day(s).
| Time | Temp. | Humidity | Pressure | Rain* | Wind** | Luminosity | Snow |
|---|---|---|---|---|---|---|---|
| 1777733142 | 22.78° C | 24% | 2147.4 hPa | - | - | - | - |
| 1777732838 | 23.33° C | 25% | 2147.4 hPa | - | - | - | - |
| 1777732535 | 22.78° C | 24% | 2147.4 hPa | - | - | - | - |
| 1777732231 | 23.33° C | 21% | 2147.4 hPa | - | - | - | - |
| 1777731928 | 23.89° C | 20% | 2147.4 hPa | - | - | - | - |
| 1777731624 | 22.78° C | 21% | 2147.4 hPa | - | - | - | - |
| 1777731321 | 23.33° C | 20% | 2147.4 hPa | - | - | - | - |
| 1777731018 | 23.89° C | 22% | 2147.4 hPa | - | - | - | - |
| 1777730714 | 23.33° C | 23% | 2147.4 hPa | - | - | - | - |
| 1777730410 | 22.78° C | 22% | 2147.4 hPa | - | - | - | - |
| 1777730107 | 23.33° C | 24% | 2147.4 hPa | - | - | - | - |
| 1777729806 | 23.33° C | 21% | 2147.4 hPa | - | - | - | - |
| 1777729503 | 22.22° C | 25% | 2147.4 hPa | - | - | - | - |
| 1777729199 | 22.22° C | 24% | 2147.4 hPa | - | - | - | - |
| 1777728898 | 21.67° C | 23% | 2147.4 hPa | - | - | - | - |
| 1777728594 | 22.22° C | 21% | 2147.4 hPa | - | - | - | - |
| 1777728291 | 22.22° C | 21% | 2147.4 hPa | - | - | - | - |
| 1777727987 | 21.67° C | 22% | 2147.4 hPa | - | - | - | - |
| 1777727684 | 22.22° C | 20% | 2147.4 hPa | - | - | - | - |
| 1777727381 | 22.22° C | 22% | 2147.4 hPa | - | - | - | - |
| 1777726774 | 22.22° C | 23% | 2147.4 hPa | - | - | - | - |
| 1777725864 | 22.22° C | 21% | 2147.4 hPa | - | - | - | - |
| 1777725561 | 21.11° C | 27% | 2147.4 hPa | - | - | - | - |
| 1777725259 | 22.22° C | 23% | 2147.4 hPa | - | - | - | - |
| 1777724956 | 22.22° C | 23% | 2147.4 hPa | - | - | - | - |
* Rain since midnight (hover to see other rain measurements)
** Current wind speed in m/s (hover to see current wind gust speed)